Location: St Paul
(33.9360°N, 83.4200°W)
Time: 00:00:09
(UTC-04:00)

Cosmos 1470 - Pass Details

Date: 06 October 2017
Orbit: 523 x 545 km, 82.5° (Epoch: 23 October)

Event Time Altitude Azimuth Distance (km) Brightness Sun altitude
Rises 19:38:24 0° 171° (S) 2,686 6.3 -6.5°
Reaches altitude 10° 19:40:36 10° 164° (SSE) 1,801 5.3 -7.0°
Maximum altitude 19:44:22 43° 93° (E) 777 3.1 -7.8°
Drops below altitude 10° 19:48:09 10° 21° (NNE) 1,817 5.2 -8.6°
Sets 19:50:23 0° 15° (NNE) 2,713 6.2 -9.0°
